COSMOS 1275 DEB, 12744

Orbit data source: Space-Track

COSMOS 1275 DEB, 12744 is space debris in LEO originally from a launch on Thu, 04 Jun 1981 UTC launched from the Plesetsk Missile And Space Complex (PKMTR). Debris objects in space refer to the collection of defunct objects orbiting the Earth. Examples of debris include non-operational satellites, rocket bodies, and fragments generated from explosions, collisions, or faulty payload assembly.

Loading next visibility...
Identifier
12744, 1981-053CM
Orbit
LEO
Country
Flag of CISCIS
Related business
Manufacturer
Unknown
Mission
Spacecraft
Bus & Motor
Unknown
Mass
Unknown
Launch date (UTC)
1981-06-04 (45 years ago)
Launch vehicle
Unknown
Launch site
Plesetsk Missile And Space Complex (PKMTR)
Object type
Payload
Rocket body
Debris
Shape & HBR
Unknown shape, 0.2 m
Radar Cross Section
Medium (>0.1 m² and <1 m²)

Expand to show TLE details & history
Last TLE update: 2 days ago

TLE from 2 days ago
0 COSMOS 1275 DEB
1 12744U 81053CM  26171.29760853  .00002959  00000-0  10927-2 0  9998
2 12744  82.9278  97.9928 0021268  97.4077 262.9528 14.32058971290569
Epoch: 2026-06-20T07:08Z
TLE epoch observation values (Epoch: 2026-06-20T07:08:33.376Z)
Latitude
-0.00006°
Longitude
82.33947°
Altitude
789.737 km
Speed
7.458 km/s
True Right ascension
06h 31m 58s
True Declination
0° 00' 00"
Sunlit
Object was in daylight at epoch
Visualization orbit readout
Latitude
Unknown
Longitude
Unknown
Altitude
Unknown
Speed
Unknown
Apparent Right ascension
Unknown
Apparent Declination
Unknown
Sunlit
N/A
Visualization observer readout
Local Sidereal Time
13:01:11
Azimuth
Unknown
Elevation
Unknown
Doppler factor
Unknown
Orbital elements
Apogee altitude
797.156 km
Perigee altitude
766.7 km
Semi-major axis
7,160.065 km
Eccentricity
0.00213
Inclination
82.9278°
RAAN
97.9928°
Arg. of periapsis
97.4077°
True anomaly
262.71101°
Mean anomaly
262.9528°
Eccentric anomaly
262.8319°
Mean motion
3.58235 °/min
Orbital period
100.49 mins
BSTAR
0.0010927
Loading maneuver chart data...
Computing Atmospheric mass density...
Loading historical data...
Loading historical data...
Loading historical data...
Loading historical data...
Loading historical data...
Loading historical data...
Loading historical data...

Documentation

Showing up to 5 results
|